| time (UTC) | temp C | wind direction | speed KPH | gust KPH | rain 1hr cm | rain 24hr cm | rain mn cm | humidity % | barometer mb |
| 20260505153326 | 22 | 171 | 11.3 | 17.7 | 0.00 | 0.00 | 0.00 | 5 | 1015.6 |
| 20260505153026 | 22 | 243 | 6.4 | 16.1 | 0.00 | 0.00 | 0.00 | 5 | 1015.7 |
| 20260505152726 | 22 | 197 | 8.0 | 12.9 | 0.00 | 0.00 | 0.00 | 5 | 1015.7 |
| 20260505152426 | 22 | 230 | 6.4 | 14.5 | 0.00 | 0.00 | 0.00 | 5 | 1015.7 |
| 20260505152126 | 22 | 191 | 16.1 | 25.7 | 0.00 | 0.00 | 0.00 | 5 | 1015.8 |
| 20260505151526 | 22 | 213 | 6.4 | 9.7 | 0.00 | 0.00 | 0.00 | 5 | 1015.6 |
| 20260505151226 | 22 | 147 | 12.9 | 19.3 | 0.00 | 0.00 | 0.00 | 5 | 1015.4 |
| 20260505150926 | 22 | 189 | 6.4 | 9.7 | 0.00 | 0.00 | 0.00 | 5 | 1015.5 |
| 20260505150626 | 22 | 234 | 11.3 | 19.3 | 0.00 | 0.00 | 0.00 | 5 | 1015.5 |
| 20260505150326 | 22 | 198 | 14.5 | 19.3 | 0.00 | 0.00 | 0.00 | 5 | 1015.5 |
| 20260505140627 | 21 | 0 | 0.0 | 3.2 | 0.00 | 0.00 | 0.00 | 6 | 1015.4 |
| 20260505140327 | 21 | 270 | 1.6 | 3.2 | 0.00 | 0.00 | 0.00 | 7 | 1015.4 |
| 20260505124826 | 15 | 0 | 0.0 | 0.0 | 0.00 | 0.00 | 0.00 | 8 | 1015.8 |
| 20260505124526 | 15 | 0 | 0.0 | 0.0 | 0.00 | 0.00 | 0.00 | 8 | 1015.9 |
| 20260505124226 | 13 | 0 | 0.0 | 0.0 | 0.00 | 0.00 | 0.00 | 8 | 1016.0 |
| 20260505123926 | 13 | 0 | 0.0 | 0.0 | 0.00 | 0.00 | 0.00 | 9 | 1016.1 |
| 20260505123626 | 12 | 0 | 0.0 | 0.0 | 0.00 | 0.00 | 0.00 | 9 | 1016.2 |
| 20260505123326 | 12 | 0 | 0.0 | 0.0 | 0.00 | 0.00 | 0.00 | 9 | 1016.3 |
| 20260505123026 | 11 | 0 | 0.0 | 0.0 | 0.00 | 0.00 | 0.00 | 9 | 1016.3 |
| 20260505122726 | 11 | 0 | 0.0 | 0.0 | 0.00 | 0.00 | 0.00 | 9 | 1016.3 |
| 20260505122426 | 11 | 0 | 0.0 | 0.0 | 0.00 | 0.00 | 0.00 | 9 | 1016.2 |
| 20260505122126 | 11 | 0 | 0.0 | 0.0 | 0.00 | 0.00 | 0.00 | 9 | 1016.2 |
| 20260505121526 | 11 | 0 | 0.0 | 0.0 | 0.00 | 0.00 | 0.00 | 9 | 1016.0 |
| 20260505121226 | 11 | 0 | 0.0 | 0.0 | 0.00 | 0.00 | 0.00 | 9 | 1016.1 |
| 20260505120926 | 11 | 0 | 0.0 | 0.0 | 0.00 | 0.00 | 0.00 | 9 | 1016.1 |
| 20260505120626 | 11 | 0 | 0.0 | 0.0 | 0.00 | 0.00 | 0.00 | 9 | 1016.2 |
| 20260505120326 | 11 | 0 | 0.0 | 0.0 | 0.00 | 0.00 | 0.00 | 9 | 1016.2 |
| 20260505115726 | 10 | 0 | 0.0 | 0.0 | 0.00 | 0.00 | 0.00 | 9 | 1016.1 |
| 20260505115426 | 10 | 0 | 0.0 | 0.0 | 0.00 | 0.00 | 0.00 | 9 | 1016.2 |
| 20260505114826 | 10 | 0 | 0.0 | 0.0 | 0.00 | 0.00 | 0.00 | 9 | 1016.2 |
| 20260505114526 | 10 | 0 | 0.0 | 0.0 | 0.00 | 0.00 | 0.00 | 9 | 1016.1 |
| 20260505114226 | 10 | 0 | 0.0 | 0.0 | 0.00 | 0.00 | 0.00 | 9 | 1016.1 |
| 20260505113926 | 10 | 0 | 0.0 | 0.0 | 0.00 | 0.00 | 0.00 | 9 | 1016.0 |
| 20260505113626 | 10 | 0 | 0.0 | 0.0 | 0.00 | 0.00 | 0.00 | 9 | 1015.8 |
| 20260505113326 | 10 | 0 | 0.0 | 0.0 | 0.00 | 0.00 | 0.00 | 9 | 1015.8 |
| 20260505113026 | 10 | 247 | 1.6 | 6.4 | 0.00 | 0.00 | 0.00 | 9 | 1015.7 |
| 20260505112726 | 10 | 202 | 0.0 | 3.2 | 0.00 | 0.00 | 0.00 | 9 | 1015.7 |
| 20260505112426 | 10 | 0 | 0.0 | 3.2 | 0.00 | 0.00 | 0.00 | 9 | 1015.6 |
| 20260505112126 | 10 | 0 | 0.0 | 0.0 | 0.00 | 0.00 | 0.00 | 9 | 1015.6 |
| 20260505111526 | 10 | 0 | 0.0 | 0.0 | 0.00 | 0.00 | 0.00 | 9 | 1015.7 |
| 20260505111226 | 10 | 0 | 0.0 | 0.0 | 0.00 | 0.00 | 0.00 | 9 | 1015.7 |
| 20260505110926 | 10 | 0 | 0.0 | 0.0 | 0.00 | 0.00 | 0.00 | 9 | 1015.7 |
| 20260505110626 | 10 | 202 | 1.6 | 4.8 | 0.00 | 0.00 | 0.00 | 8 | 1015.7 |
| 20260505110326 | 11 | 0 | 0.0 | 0.0 | 0.00 | 0.00 | 0.00 | 8 | 1015.7 |
| 20260505102126 | 10 | 0 | 0.0 | 0.0 | 0.00 | 0.00 | 0.00 | 8 | 1015.6 |
| 20260505101526 | 10 | 215 | 3.2 | 6.4 | 0.00 | 0.00 | 0.00 | 9 | 1015.6 |
| 20260505101226 | 10 | 0 | 0.0 | 0.0 | 0.00 | 0.00 | 0.00 | 9 | 1015.7 |
| 20260505100926 | 10 | 0 | 0.0 | 0.0 | 0.00 | 0.00 | 0.00 | 9 | 1015.7 |
| 20260505100626 | 10 | 0 | 0.0 | 0.0 | 0.00 | 0.00 | 0.00 | 9 | 1015.8 |
| 20260505100326 | 10 | 0 | 0.0 | 0.0 | 0.00 | 0.00 | 0.00 | 9 | 1015.8 |
| 20260505095727 | 10 | 0 | 0.0 | 0.0 | 0.00 | 0.00 | 0.00 | 9 | 1015.9 |
| 20260505095427 | 10 | 0 | 0.0 | 0.0 | 0.00 | 0.00 | 0.00 | 9 | 1015.8 |
| 20260505094827 | 10 | 0 | 0.0 | 0.0 | 0.00 | 0.00 | 0.00 | 9 | 1015.8 |
| 20260505094527 | 10 | 0 | 0.0 | 0.0 | 0.00 | 0.00 | 0.00 | 9 | 1015.9 |
| 20260505094227 | 10 | 0 | 0.0 | 0.0 | 0.00 | 0.00 | 0.00 | 9 | 1015.8 |
| 20260505093927 | 10 | 0 | 0.0 | 0.0 | 0.00 | 0.00 | 0.00 | 9 | 1015.8 |
| 20260505093627 | 9 | 0 | 0.0 | 0.0 | 0.00 | 0.00 | 0.00 | 9 | 1015.9 |
| 20260505093327 | 9 | 0 | 0.0 | 0.0 | 0.00 | 0.00 | 0.00 | 9 | 1015.9 |
| 20260505093027 | 8 | 0 | 0.0 | 0.0 | 0.00 | 0.00 | 0.00 | 9 | 1015.9 |
| 20260505092727 | 8 | 0 | 0.0 | 0.0 | 0.00 | 0.00 | 0.00 | 9 | 1016.0 |
| 20260505092427 | 8 | 0 | 0.0 | 0.0 | 0.00 | 0.00 | 0.00 | 9 | 1015.9 |
| 20260505092127 | 8 | 0 | 0.0 | 0.0 | 0.00 | 0.00 | 0.00 | 9 | 1015.9 |
| 20260505091527 | 8 | 0 | 0.0 | 0.0 | 0.00 | 0.00 | 0.00 | 9 | 1016.1 |
| 20260505091227 | 8 | 0 | 0.0 | 0.0 | 0.00 | 0.00 | 0.00 | 9 | 1016.1 |
| 20260505090927 | 9 | 0 | 0.0 | 0.0 | 0.00 | 0.00 | 0.00 | 9 | 1016.1 |
| 20260505090627 | 9 | 0 | 0.0 | 0.0 | 0.00 | 0.00 | 0.00 | 9 | 1016.2 |
| 20260505090327 | 8 | 0 | 0.0 | 0.0 | 0.00 | 0.00 | 0.00 | 9 | 1016.2 |
| 20260505085727 | 9 | 0 | 0.0 | 0.0 | 0.00 | 0.00 | 0.00 | 9 | 1016.2 |
| 20260505085426 | 9 | 0 | 0.0 | 0.0 | 0.00 | 0.00 | 0.00 | 9 | 1016.1 |
| 20260505084826 | 9 | 0 | 0.0 | 0.0 | 0.00 | 0.00 | 0.00 | 9 | 1016.1 |
| 20260505084526 | 9 | 0 | 0.0 | 0.0 | 0.00 | 0.00 | 0.00 | 9 | 1016.1 |
| 20260505084226 | 9 | 0 | 0.0 | 0.0 | 0.00 | 0.00 | 0.00 | 9 | 1016.2 |
| 20260505083926 | 9 | 0 | 0.0 | 0.0 | 0.00 | 0.00 | 0.00 | 9 | 1016.2 |
| 20260505083626 | 9 | 0 | 0.0 | 0.0 | 0.00 | 0.00 | 0.00 | 9 | 1016.3 |
| 20260505083326 | 9 | 0 | 0.0 | 0.0 | 0.00 | 0.00 | 0.00 | 9 | 1016.3 |
| 20260505083026 | 10 | 0 | 0.0 | 0.0 | 0.00 | 0.00 | 0.00 | 9 | 1016.2 |
| 20260505082726 | 10 | 0 | 0.0 | 0.0 | 0.00 | 0.00 | 0.00 | 9 | 1016.2 |
| 20260505082426 | 10 | 0 | 0.0 | 0.0 | 0.00 | 0.00 | 0.00 | 9 | 1016.1 |
| 20260505082126 | 10 | 0 | 0.0 | 0.0 | 0.00 | 0.00 | 0.00 | 9 | 1016.0 |
| 20260505081526 | 10 | 0 | 0.0 | 0.0 | 0.00 | 0.00 | 0.00 | 9 | 1016.0 |
| 20260505081226 | 10 | 0 | 0.0 | 0.0 | 0.00 | 0.00 | 0.00 | 9 | 1016.0 |
| 20260505080926 | 10 | 0 | 0.0 | 0.0 | 0.00 | 0.00 | 0.00 | 9 | 1016.0 |
| 20260505080626 | 10 | 0 | 0.0 | 0.0 | 0.00 | 0.00 | 0.00 | 9 | 1015.9 |
| 20260505080326 | 10 | 0 | 0.0 | 0.0 | 0.00 | 0.00 | 0.00 | 9 | 1015.9 |
| 20260505075726 | 10 | 0 | 0.0 | 0.0 | 0.00 | 0.00 | 0.00 | 9 | 1015.9 |
| 20260505075426 | 10 | 0 | 0.0 | 0.0 | 0.00 | 0.00 | 0.00 | 9 | 1015.9 |
| 20260505074826 | 9 | 0 | 0.0 | 0.0 | 0.00 | 0.00 | 0.00 | 9 | 1016.0 |
| 20260505074526 | 9 | 0 | 0.0 | 0.0 | 0.00 | 0.00 | 0.00 | 9 | 1016.0 |
| 20260505074226 | 9 | 0 | 0.0 | 0.0 | 0.00 | 0.00 | 0.00 | 9 | 1016.0 |
| 20260505073926 | 9 | 0 | 0.0 | 0.0 | 0.00 | 0.00 | 0.00 | 9 | 1016.0 |
| 20260505073626 | 9 | 0 | 0.0 | 0.0 | 0.00 | 0.00 | 0.00 | 9 | 1016.0 |
| 20260505073326 | 9 | 0 | 0.0 | 0.0 | 0.00 | 0.00 | 0.00 | 9 | 1016.0 |
| 20260505073026 | 9 | 0 | 0.0 | 0.0 | 0.00 | 0.00 | 0.00 | 9 | 1016.0 |
| 20260505072726 | 9 | 0 | 0.0 | 0.0 | 0.00 | 0.00 | 0.00 | 9 | 1016.0 |
| 20260505072426 | 9 | 0 | 0.0 | 0.0 | 0.00 | 0.00 | 0.00 | 9 | 1016.1 |
| 20260505072126 | 9 | 0 | 0.0 | 0.0 | 0.00 | 0.00 | 0.00 | 9 | 1016.0 |
| 20260505071526 | 9 | 0 | 0.0 | 0.0 | 0.00 | 0.00 | 0.00 | 9 | 1016.1 |
| 20260505071226 | 9 | 0 | 0.0 | 0.0 | 0.00 | 0.00 | 0.00 | 9 | 1016.1 |
| 20260505070926 | 9 | 0 | 0.0 | 0.0 | 0.00 | 0.00 | 0.00 | 9 | 1016.1 |
| 20260505070626 | 9 | 0 | 0.0 | 0.0 | 0.00 | 0.00 | 0.00 | 9 | 1016.1 |
| 20260505070326 | 9 | 0 | 0.0 | 0.0 | 0.00 | 0.00 | 0.00 | 9 | 1016.1 |
| 20260505065726 | 9 | 0 | 0.0 | 0.0 | 0.00 | 0.00 | 0.00 | 9 | 1016.0 |
| 20260505065426 | 9 | 0 | 0.0 | 0.0 | 0.00 | 0.00 | 0.00 | 9 | 1016.0 |
| 20260505064826 | 9 | 0 | 0.0 | 0.0 | 0.00 | 0.00 | 0.00 | 9 | 1016.0 |
| 20260505064526 | 9 | 0 | 0.0 | 0.0 | 0.00 | 0.00 | 0.00 | 9 | 1016.0 |
| 20260505064226 | 9 | 0 | 0.0 | 0.0 | 0.00 | 0.00 | 0.00 | 9 | 1016.0 |
| 20260505063926 | 9 | 0 | 0.0 | 0.0 | 0.00 | 0.00 | 0.00 | 9 | 1016.1 |
| 20260505063626 | 9 | 0 | 0.0 | 0.0 | 0.00 | 0.00 | 0.00 | 9 | 1016.1 |
| 20260505063326 | 9 | 0 | 0.0 | 0.0 | 0.00 | 0.00 | 0.00 | 9 | 1016.1 |
| 20260505063026 | 9 | 0 | 0.0 | 0.0 | 0.00 | 0.00 | 0.00 | 9 | 1016.1 |
| 20260505062726 | 9 | 0 | 0.0 | 0.0 | 0.00 | 0.00 | 0.00 | 9 | 1016.2 |
| 20260505062426 | 9 | 0 | 0.0 | 0.0 | 0.00 | 0.00 | 0.00 | 9 | 1016.2 |
| 20260505062126 | 9 | 0 | 0.0 | 0.0 | 0.00 | 0.00 | 0.00 | 9 | 1016.3 |
| 20260505061526 | 9 | 0 | 0.0 | 0.0 | 0.00 | 0.00 | 0.00 | 9 | 1016.2 |
| 20260505061226 | 9 | 0 | 0.0 | 0.0 | 0.00 | 0.00 | 0.00 | 9 | 1016.2 |
| 20260505060926 | 9 | 0 | 0.0 | 0.0 | 0.00 | 0.00 | 0.00 | 9 | 1016.2 |
| 20260505060626 | 9 | 0 | 0.0 | 0.0 | 0.00 | 0.00 | 0.00 | 9 | 1016.2 |
| 20260505060326 | 9 | 0 | 0.0 | 0.0 | 0.00 | 0.00 | 0.00 | 9 | 1016.2 |
| 20260505055726 | 9 | 0 | 0.0 | 0.0 | 0.00 | 0.00 | 0.00 | 9 | 1016.3 |
| 20260505055426 | 9 | 0 | 0.0 | 0.0 | 0.00 | 0.00 | 0.00 | 9 | 1016.3 |
| 20260505054826 | 9 | 0 | 0.0 | 0.0 | 0.00 | 0.00 | 0.00 | 9 | 1016.3 |
| 20260505054526 | 9 | 0 | 0.0 | 0.0 | 0.00 | 0.00 | 0.00 | 9 | 1016.2 |
| 20260505054227 | 9 | 0 | 0.0 | 0.0 | 0.00 | 0.00 | 0.00 | 9 | 1016.3 |
| 20260505053927 | 9 | 0 | 0.0 | 0.0 | 0.00 | 0.00 | 0.00 | 9 | 1016.3 |
| 20260505053627 | 10 | 0 | 0.0 | 0.0 | 0.00 | 0.00 | 0.00 | 9 | 1016.2 |
| 20260505053327 | 10 | 0 | 0.0 | 0.0 | 0.00 | 0.00 | 0.00 | 9 | 1016.3 |
| 20260505053027 | 10 | 0 | 0.0 | 0.0 | 0.00 | 0.00 | 0.00 | 9 | 1016.3 |
| 20260505052727 | 10 | 0 | 0.0 | 0.0 | 0.00 | 0.00 | 0.00 | 9 | 1016.3 |
| 20260505052427 | 10 | 0 | 0.0 | 0.0 | 0.00 | 0.00 | 0.00 | 9 | 1016.3 |
| 20260505052127 | 10 | 0 | 0.0 | 0.0 | 0.00 | 0.00 | 0.00 | 9 | 1016.3 |
| 20260505051527 | 10 | 0 | 0.0 | 0.0 | 0.00 | 0.00 | 0.00 | 9 | 1016.3 |
| 20260505051227 | 10 | 0 | 0.0 | 0.0 | 0.00 | 0.00 | 0.00 | 9 | 1016.3 |
| 20260505050927 | 10 | 0 | 0.0 | 0.0 | 0.00 | 0.00 | 0.00 | 9 | 1016.3 |
| 20260505050627 | 10 | 0 | 0.0 | 0.0 | 0.00 | 0.00 | 0.00 | 9 | 1016.3 |
| 20260505050327 | 10 | 0 | 0.0 | 0.0 | 0.00 | 0.00 | 0.00 | 9 | 1016.3 |
| 20260505041526 | 11 | 0 | 0.0 | 0.0 | 0.00 | 0.00 | 0.00 | 8 | 1016.1 |
| 20260505041226 | 11 | 0 | 0.0 | 0.0 | 0.00 | 0.00 | 0.00 | 8 | 1016.0 |
| 20260505040926 | 11 | 0 | 0.0 | 0.0 | 0.00 | 0.00 | 0.00 | 8 | 1016.0 |
| 20260505040626 | 11 | 0 | 0.0 | 0.0 | 0.00 | 0.00 | 0.00 | 8 | 1016.0 |
| 20260505040326 | 11 | 0 | 0.0 | 0.0 | 0.00 | 0.00 | 0.00 | 8 | 1016.1 |
| 20260505035726 | 11 | 0 | 0.0 | 0.0 | 0.00 | 0.00 | 0.00 | 8 | 1016.0 |
| 20260505035426 | 11 | 0 | 0.0 | 0.0 | 0.00 | 0.00 | 0.00 | 8 | 1016.1 |
| 20260505034826 | 11 | 0 | 0.0 | 0.0 | 0.00 | 0.00 | 0.00 | 8 | 1016.0 |
| 20260505034526 | 11 | 0 | 0.0 | 0.0 | 0.00 | 0.00 | 0.00 | 8 | 1016.0 |
| 20260505034226 | 11 | 0 | 0.0 | 0.0 | 0.00 | 0.00 | 0.00 | 8 | 1016.1 |
| 20260505033926 | 11 | 0 | 0.0 | 0.0 | 0.00 | 0.00 | 0.00 | 8 | 1016.1 |
| 20260505033626 | 11 | 0 | 0.0 | 0.0 | 0.00 | 0.00 | 0.00 | 8 | 1016.1 |
| 20260505033326 | 12 | 0 | 0.0 | 0.0 | 0.00 | 0.00 | 0.00 | 8 | 1016.1 |
| 20260505033026 | 12 | 0 | 0.0 | 0.0 | 0.00 | 0.00 | 0.00 | 8 | 1016.1 |
| 20260505032726 | 12 | 0 | 0.0 | 0.0 | 0.00 | 0.00 | 0.00 | 8 | 1016.1 |
| 20260505032426 | 12 | 0 | 0.0 | 0.0 | 0.00 | 0.00 | 0.00 | 8 | 1016.2 |
| 20260505032126 | 12 | 0 | 0.0 | 0.0 | 0.00 | 0.00 | 0.00 | 8 | 1016.1 |
| 20260505031526 | 12 | 0 | 0.0 | 0.0 | 0.00 | 0.00 | 0.00 | 8 | 1016.1 |
| 20260505031226 | 12 | 0 | 0.0 | 0.0 | 0.00 | 0.00 | 0.00 | 8 | 1016.1 |
| 20260505030926 | 12 | 0 | 0.0 | 0.0 | 0.00 | 0.00 | 0.00 | 8 | 1016.1 |
| 20260505030626 | 12 | 0 | 0.0 | 0.0 | 0.00 | 0.00 | 0.00 | 8 | 1016.1 |
| 20260505030326 | 12 | 0 | 0.0 | 0.0 | 0.00 | 0.00 | 0.00 | 8 | 1016.0 |
| 20260505025726 | 12 | 0 | 0.0 | 0.0 | 0.00 | 0.00 | 0.00 | 8 | 1016.1 |
| 20260505025426 | 12 | 0 | 0.0 | 0.0 | 0.00 | 0.00 | 0.00 | 8 | 1016.0 |
| 20260505024826 | 13 | 0 | 0.0 | 0.0 | 0.00 | 0.00 | 0.00 | 8 | 1016.0 |
| 20260505024526 | 13 | 0 | 0.0 | 0.0 | 0.00 | 0.00 | 0.00 | 8 | 1016.0 |
| 20260505024226 | 13 | 0 | 0.0 | 0.0 | 0.00 | 0.00 | 0.00 | 8 | 1016.1 |
| 20260505023926 | 13 | 0 | 0.0 | 0.0 | 0.00 | 0.00 | 0.00 | 8 | 1016.1 |
| 20260505023626 | 13 | 0 | 0.0 | 0.0 | 0.00 | 0.00 | 0.00 | 8 | 1016.0 |
| 20260505023326 | 13 | 0 | 0.0 | 0.0 | 0.00 | 0.00 | 0.00 | 8 | 1015.9 |
| 20260505023026 | 13 | 0 | 0.0 | 0.0 | 0.00 | 0.00 | 0.00 | 8 | 1015.9 |
| 20260505022726 | 13 | 0 | 0.0 | 0.0 | 0.00 | 0.00 | 0.00 | 8 | 1015.9 |
| 20260505022426 | 13 | 0 | 0.0 | 0.0 | 0.00 | 0.00 | 0.00 | 8 | 1015.9 |
| 20260505022126 | 13 | 0 | 0.0 | 0.0 | 0.00 | 0.00 | 0.00 | 8 | 1015.8 |
| 20260505021526 | 13 | 0 | 0.0 | 0.0 | 0.00 | 0.00 | 0.00 | 8 | 1015.7 |
| 20260505021226 | 13 | 0 | 0.0 | 0.0 | 0.00 | 0.00 | 0.00 | 8 | 1015.6 |
| 20260505020926 | 13 | 0 | 0.0 | 0.0 | 0.00 | 0.00 | 0.00 | 8 | 1015.5 |
| 20260505020626 | 14 | 0 | 0.0 | 0.0 | 0.00 | 0.00 | 0.00 | 8 | 1015.5 |
| 20260505020326 | 14 | 0 | 0.0 | 0.0 | 0.00 | 0.00 | 0.00 | 8 | 1015.5 |
| 20260505015726 | 14 | 0 | 0.0 | 0.0 | 0.00 | 0.00 | 0.00 | 8 | 1015.4 |
| 20260505015426 | 15 | 0 | 0.0 | 0.0 | 0.00 | 0.00 | 0.00 | 7 | 1015.4 |
| 20260505014826 | 15 | 0 | 0.0 | 0.0 | 0.00 | 0.00 | 0.00 | 7 | 1015.2 |
| 20260505014526 | 15 | 0 | 0.0 | 0.0 | 0.00 | 0.00 | 0.00 | 7 | 1015.3 |
| 20260505014226 | 15 | 0 | 0.0 | 0.0 | 0.00 | 0.00 | 0.00 | 7 | 1015.1 |
| 20260505013926 | 15 | 0 | 0.0 | 0.0 | 0.00 | 0.00 | 0.00 | 7 | 1015.1 |
| 20260505013626 | 15 | 0 | 0.0 | 0.0 | 0.00 | 0.00 | 0.00 | 7 | 1014.9 |
| 20260505013326 | 16 | 0 | 0.0 | 0.0 | 0.00 | 0.00 | 0.00 | 7 | 1014.9 |
| 20260505013026 | 16 | 0 | 0.0 | 0.0 | 0.00 | 0.00 | 0.00 | 7 | 1014.9 |
| 20260505012726 | 15 | 0 | 0.0 | 0.0 | 0.00 | 0.00 | 0.00 | 7 | 1014.9 |
| 20260505012426 | 16 | 0 | 0.0 | 0.0 | 0.00 | 0.00 | 0.00 | 7 | 1014.9 |
| 20260505012126 | 16 | 0 | 0.0 | 0.0 | 0.00 | 0.00 | 0.00 | 7 | 1014.8 |
| 20260505011527 | 16 | 0 | 0.0 | 0.0 | 0.00 | 0.00 | 0.00 | 7 | 1014.7 |
| 20260505011227 | 16 | 0 | 0.0 | 0.0 | 0.00 | 0.00 | 0.00 | 7 | 1014.7 |
| 20260505010927 | 17 | 0 | 0.0 | 0.0 | 0.00 | 0.00 | 0.00 | 7 | 1014.7 |
| 20260505010627 | 17 | 0 | 0.0 | 0.0 | 0.00 | 0.00 | 0.00 | 6 | 1014.6 |
| 20260505010327 | 17 | 0 | 0.0 | 0.0 | 0.00 | 0.00 | 0.00 | 6 | 1014.5 |
| 20260505005727 | 18 | 0 | 0.0 | 0.0 | 0.00 | 0.00 | 0.00 | 6 | 1014.3 |
| 20260505005427 | 18 | 0 | 0.0 | 0.0 | 0.00 | 0.00 | 0.00 | 6 | 1014.3 |
| 20260505004827 | 20 | 0 | 0.0 | 0.0 | 0.00 | 0.00 | 0.00 | 6 | 1014.1 |
| 20260505003327 | 22 | 0 | 0.0 | 0.0 | 0.00 | 0.00 | 0.00 | 5 | 1013.5 |
| 20260505003027 | 23 | 0 | 0.0 | 0.0 | 0.00 | 0.00 | 0.00 | 5 | 1013.3 |
| 20260505002727 | 23 | 0 | 0.0 | 0.0 | 0.00 | 0.00 | 0.00 | 5 | 1013.3 |
| 20260505001526 | 24 | 0 | 0.0 | 0.0 | 0.00 | 0.00 | 0.00 | 4 | 1013.3 |
| 20260505001226 | 25 | 0 | 0.0 | 0.0 | 0.00 | 0.00 | 0.00 | 4 | 1013.2 |
| 20260505000926 | 24 | 0 | 0.0 | 0.0 | 0.00 | 0.00 | 0.00 | 4 | 1013.2 |
| 20260505000627 | 24 | 0 | 0.0 | 0.0 | 0.00 | 0.00 | 0.00 | 4 | 1013.2 |
| 20260505000326 | 24 | 0 | 0.0 | 0.0 | 0.00 | 0.00 | 0.00 | 4 | 1013.2 |
| 20260504235727 | 24 | 0 | 0.0 | 0.0 | 0.00 | 0.00 | 0.00 | 4 | 1013.2 |
| 20260504235426 | 24 | 225 | 0.0 | 3.2 | 0.00 | 0.00 | 0.00 | 4 | 1013.2 |
| 20260504234826 | 25 | 225 | 1.6 | 6.4 | 0.00 | 0.00 | 0.00 | 4 | 1013.2 |
| 20260504234526 | 25 | 0 | 0.0 | 0.0 | 0.00 | 0.00 | 0.00 | 4 | 1013.1 |
| 20260504234226 | 25 | 0 | 0.0 | 0.0 | 0.00 | 0.00 | 0.00 | 3 | 1013.0 |
| 20260504233926 | 25 | 225 | 0.0 | 1.6 | 0.00 | 0.00 | 0.00 | 3 | 1013.1 |
| 20260504233626 | 25 | 225 | 3.2 | 6.4 | 0.00 | 0.00 | 0.00 | 3 | 1013.0 |
| 20260504233326 | 25 | 0 | 0.0 | 0.0 | 0.00 | 0.00 | 0.00 | 3 | 1013.1 |
| 20260504233026 | 25 | 202 | 4.8 | 8.0 | 0.00 | 0.00 | 0.00 | 3 | 1013.1 |
| 20260504232726 | 25 | 225 | 6.4 | 9.7 | 0.00 | 0.00 | 0.00 | 3 | 1013.0 |
| 20260504232426 | 26 | 235 | 3.2 | 6.4 | 0.00 | 0.00 | 0.00 | 3 | 1013.0 |
| 20260504232126 | 26 | 230 | 1.6 | 4.8 | 0.00 | 0.00 | 0.00 | 3 | 1012.9 |
| 20260504231526 | 26 | 0 | 0.0 | 0.0 | 0.00 | 0.00 | 0.00 | 3 | 1012.9 |
| 20260504231226 | 26 | 0 | 0.0 | 3.2 | 0.00 | 0.00 | 0.00 | 3 | 1012.9 |
| 20260504230926 | 26 | 225 | 0.0 | 3.2 | 0.00 | 0.00 | 0.00 | 3 | 1012.9 |
| 20260504230626 | 26 | 214 | 3.2 | 6.4 | 0.00 | 0.00 | 0.00 | 3 | 1012.9 |
| 20260504230326 | 25 | 247 | 1.6 | 4.8 | 0.00 | 0.00 | 0.00 | 3 | 1012.9 |
| 20260504225726 | 26 | 0 | 0.0 | 4.8 | 0.00 | 0.00 | 0.00 | 3 | 1012.9 |
| 20260504225426 | 26 | 247 | 1.6 | 4.8 | 0.00 | 0.00 | 0.00 | 3 | 1013.0 |
| 20260504224826 | 26 | 219 | 4.8 | 8.0 | 0.00 | 0.00 | 0.00 | 3 | 1013.1 |
| 20260504224526 | 26 | 230 | 4.8 | 8.0 | 0.00 | 0.00 | 0.00 | 3 | 1013.1 |
| 20260504224226 | 26 | 228 | 4.8 | 6.4 | 0.00 | 0.00 | 0.00 | 3 | 1013.0 |
| 20260504223926 | 26 | 158 | 3.2 | 8.0 | 0.00 | 0.00 | 0.00 | 3 | 1013.0 |
| 20260504223626 | 26 | 225 | 1.6 | 4.8 | 0.00 | 0.00 | 0.00 | 3 | 1013.0 |
| 20260504223326 | 25 | 170 | 3.2 | 6.4 | 0.00 | 0.00 | 0.00 | 4 | 1013.1 |
| 20260504223026 | 26 | 261 | 3.2 | 6.4 | 0.00 | 0.00 | 0.00 | 4 | 1013.1 |
| 20260504222726 | 26 | 251 | 3.2 | 6.4 | 0.00 | 0.00 | 0.00 | 4 | 1013.1 |
| 20260504222426 | 26 | 225 | 1.6 | 4.8 | 0.00 | 0.00 | 0.00 | 3 | 1013.0 |
| 20260504222126 | 26 | 0 | 0.0 | 0.0 | 0.00 | 0.00 | 0.00 | 3 | 1013.0 |
| 20260504221526 | 26 | 292 | 0.0 | 3.2 | 0.00 | 0.00 | 0.00 | 4 | 1013.1 |
| 20260504221226 | 25 | 198 | 8.0 | 11.3 | 0.00 | 0.00 | 0.00 | 4 | 1013.1 |
| 20260504220926 | 26 | 215 | 1.6 | 6.4 | 0.00 | 0.00 | 0.00 | 4 | 1013.1 |
| 20260504220626 | 25 | 180 | 3.2 | 8.0 | 0.00 | 0.00 | 0.00 | 4 | 1013.1 |
| 20260504220326 | 25 | 210 | 1.6 | 3.2 | 0.00 | 0.00 | 0.00 | 4 | 1013.2 |
| 20260504215726 | 25 | 253 | 4.8 | 9.7 | 0.00 | 0.00 | 0.00 | 4 | 1013.2 |
| 20260504215426 | 25 | 247 | 4.8 | 9.7 | 0.00 | 0.00 | 0.00 | 4 | 1013.1 |
| 20260504214826 | 24 | 269 | 4.8 | 9.7 | 0.00 | 0.00 | 0.00 | 4 | 1013.1 |
| 20260504214526 | 24 | 184 | 9.7 | 14.5 | 0.00 | 0.00 | 0.00 | 4 | 1013.2 |
| 20260504214226 | 25 | 191 | 4.8 | 6.4 | 0.00 | 0.00 | 0.00 | 4 | 1013.1 |
| 20260504213927 | 25 | 225 | 6.4 | 6.4 | 0.00 | 0.00 | 0.00 | 4 | 1013.1 |
| 20260504213326 | 25 | 0 | 4.8 | 4.8 | 0.00 | 0.00 | 0.00 | 4 | 1013.3 |
| 20260504213026 | 25 | 0 | 4.8 | 4.8 | 0.00 | 0.00 | 0.00 | 4 | 1013.3 |
| 20260504212726 | 25 | 0 | 4.8 | 4.8 | 0.00 | 0.00 | 0.00 | 4 | 1013.3 |
| 20260504212426 | 25 | 0 | 0.0 | 0.0 | 0.00 | 0.00 | 0.00 | 4 | 1013.2 |
| 20260504212126 | 24 | 0 | 0.0 | 0.0 | 0.00 | 0.00 | 0.00 | 4 | 1013.2 |
| 20260504211526 | 23 | 222 | 4.8 | 6.4 | 0.00 | 0.00 | 0.00 | 4 | 1013.2 |
| 20260504211226 | 23 | 0 | 0.0 | 0.0 | 0.00 | 0.00 | 0.00 | 4 | 1013.3 |
| 20260504210926 | 24 | 0 | 0.0 | 0.0 | 0.00 | 0.00 | 0.00 | 4 | 1013.3 |
| 20260504210626 | 24 | 180 | 3.2 | 6.4 | 0.00 | 0.00 | 0.00 | 4 | 1013.4 |
| 20260504210326 | 24 | 168 | 1.6 | 4.8 | 0.00 | 0.00 | 0.00 | 4 | 1013.5 |
| 20260504205727 | 24 | 209 | 3.2 | 8.0 | 0.00 | 0.00 | 0.00 | 4 | 1013.4 |
| 20260504205427 | 24 | 212 | 4.8 | 9.7 | 0.00 | 0.00 | 0.00 | 4 | 1013.5 |
| 20260504204827 | 24 | 232 | 6.4 | 12.9 | 0.00 | 0.00 | 0.00 | 4 | 1013.5 |
| 20260504204527 | 23 | 235 | 3.2 | 4.8 | 0.00 | 0.00 | 0.00 | 4 | 1013.5 |
| 20260504204227 | 24 | 0 | 0.0 | 0.0 | 0.00 | 0.00 | 0.00 | 4 | 1013.5 |
| 20260504203927 | 24 | 0 | 0.0 | 0.0 | 0.00 | 0.00 | 0.00 | 4 | 1013.5 |
| 20260504203630 | 25 | 243 | 3.2 | 8.0 | 0.00 | 0.00 | 0.00 | 3 | 1013.5 |
| 20260504203327 | 25 | 202 | 1.6 | 4.8 | 0.00 | 0.00 | 0.00 | 4 | 1013.5 |
| 20260504203027 | 24 | 180 | 1.6 | 6.4 | 0.00 | 0.00 | 0.00 | 4 | 1013.6 |
| 20260504202727 | 24 | 179 | 6.4 | 9.7 | 0.00 | 0.00 | 0.00 | 4 | 1013.7 |
| 20260504202427 | 24 | 114 | 4.8 | 9.7 | 0.00 | 0.00 | 0.00 | 4 | 1013.6 |
| 20260504202127 | 24 | 180 | 0.0 | 3.2 | 0.00 | 0.00 | 0.00 | 4 | 1013.6 |
| 20260504201527 | 25 | 270 | 0.0 | 3.2 | 0.00 | 0.00 | 0.00 | 4 | 1013.5 |
| 20260504201227 | 25 | 306 | 1.6 | 3.2 | 0.00 | 0.00 | 0.00 | 4 | 1013.6 |
| 20260504200927 | 25 | 180 | 3.2 | 9.7 | 0.00 | 0.00 | 0.00 | 4 | 1013.7 |
| 20260504200627 | 25 | 156 | 1.6 | 4.8 | 0.00 | 0.00 | 0.00 | 4 | 1013.7 |
| 20260504200327 | 25 | 233 | 6.4 | 11.3 | 0.00 | 0.00 | 0.00 | 4 | 1013.6 |
| 20260504195727 | 25 | 0 | 0.0 | 0.0 | 0.00 | 0.00 | 0.00 | 4 | 1013.7 |
| 20260504195427 | 25 | 0 | 0.0 | 0.0 | 0.00 | 0.00 | 0.00 | 4 | 1013.8 |
| 20260504194827 | 25 | 195 | 1.6 | 4.8 | 0.00 | 0.00 | 0.00 | 4 | 1013.9 |
| 20260504194527 | 25 | 209 | 3.2 | 4.8 | 0.00 | 0.00 | 0.00 | 4 | 1014.0 |
| 20260504194227 | 25 | 0 | 1.6 | 8.0 | 0.00 | 0.00 | 0.00 | 4 | 1014.1 |
| 20260504193927 | 24 | 199 | 8.0 | 11.3 | 0.00 | 0.00 | 0.00 | 4 | 1014.1 |
| 20260504193627 | 24 | 202 | 1.6 | 6.4 | 0.00 | 0.00 | 0.00 | 4 | 1014.1 |
| 20260504193327 | 25 | 203 | 6.4 | 9.7 | 0.00 | 0.00 | 0.00 | 4 | 1014.1 |
| 20260504193028 | 25 | 0 | 0.0 | 0.0 | 0.00 | 0.00 | 0.00 | 4 | 1014.1 |
| 20260504192727 | 25 | 170 | 1.6 | 4.8 | 0.00 | 0.00 | 0.00 | 4 | 1014.2 |
| 20260504192426 | 23 | 202 | 1.6 | 4.8 | 0.00 | 0.00 | 0.00 | 4 | 1014.4 |
| 20260504192126 | 23 | 225 | 3.2 | 8.0 | 0.00 | 0.00 | 0.00 | 4 | 1014.4 |
| 20260504191526 | 24 | 188 | 4.8 | 9.7 | 0.00 | 0.00 | 0.00 | 4 | 1014.4 |
| 20260504191226 | 25 | 225 | 3.2 | 4.8 | 0.00 | 0.00 | 0.00 | 4 | 1014.4 |
| 20260504190926 | 25 | 0 | 0.0 | 0.0 | 0.00 | 0.00 | 0.00 | 4 | 1014.4 |
| 20260504190626 | 25 | 168 | 1.6 | 4.8 | 0.00 | 0.00 | 0.00 | 4 | 1014.5 |
| 20260504190326 | 25 | 0 | 0.0 | 0.0 | 0.00 | 0.00 | 0.00 | 4 | 1014.5 |
| 20260504185726 | 25 | 201 | 6.4 | 8.0 | 0.00 | 0.00 | 0.00 | 4 | 1014.7 |
| 20260504185426 | 25 | 217 | 4.8 | 8.0 | 0.00 | 0.00 | 0.00 | 4 | 1014.8 |
| 20260504184826 | 24 | 172 | 3.2 | 4.8 | 0.00 | 0.00 | 0.00 | 4 | 1014.9 |
| 20260504184526 | 24 | 157 | 1.6 | 4.8 | 0.00 | 0.00 | 0.00 | 4 | 1015.0 |
| 20260504184226 | 24 | 134 | 4.8 | 9.7 | 0.00 | 0.00 | 0.00 | 4 | 1015.0 |
| 20260504183926 | 25 | 0 | 0.0 | 0.0 | 0.00 | 0.00 | 0.00 | 4 | 1015.0 |
| 20260504183626 | 25 | 0 | 0.0 | 0.0 | 0.00 | 0.00 | 0.00 | 4 | 1014.9 |
| 20260504183326 | 25 | 180 | 1.6 | 6.4 | 0.00 | 0.00 | 0.00 | 4 | 1014.9 |
| 20260504183026 | 25 | 270 | 0.0 | 1.6 | 0.00 | 0.00 | 0.00 | 4 | 1015.1 |
| 20260504182726 | 24 | 188 | 4.8 | 8.0 | 0.00 | 0.00 | 0.00 | 4 | 1015.1 |
| 20260504182426 | 25 | 249 | 4.8 | 8.0 | 0.00 | 0.00 | 0.00 | 4 | 1015.0 |
| 20260504182126 | 25 | 225 | 3.2 | 4.8 | 0.00 | 0.00 | 0.00 | 4 | 1015.0 |
| 20260504181526 | 24 | 292 | 1.6 | 3.2 | 0.00 | 0.00 | 0.00 | 4 | 1015.2 |
| 20260504181226 | 25 | 225 | 0.0 | 3.2 | 0.00 | 0.00 | 0.00 | 4 | 1015.2 |
| 20260504180926 | 25 | 202 | 1.6 | 4.8 | 0.00 | 0.00 | 0.00 | 4 | 1015.1 |
| 20260504180634 | 25 | 0 | 0.0 | 0.0 | 0.00 | 0.00 | 0.00 | 4 | 1015.2 |
| 20260504180327 | 25 | 0 | 0.0 | 0.0 | 0.00 | 0.00 | 0.00 | 4 | 1015.3 |
| 20260504175726 | 25 | 0 | 0.0 | 0.0 | 0.00 | 0.00 | 0.00 | 4 | 1015.4 |
| 20260504175426 | 25 | 0 | 0.0 | 0.0 | 0.00 | 0.00 | 0.00 | 4 | 1015.4 |
| 20260504174827 | 24 | 0 | 0.0 | 0.0 | 0.00 | 0.00 | 0.00 | 4 | 1015.5 |
| 20260504174526 | 24 | 0 | 0.0 | 0.0 | 0.00 | 0.00 | 0.00 | 4 | 1015.5 |
| 20260504174230 | 24 | 0 | 0.0 | 0.0 | 0.00 | 0.00 | 0.00 | 4 | 1015.6 |
| 20260504173928 | 24 | 0 | 0.0 | 0.0 | 0.00 | 0.00 | 0.00 | 4 | 1015.5 |
| 20260504173628 | 23 | 0 | 0.0 | 0.0 | 0.00 | 0.00 | 0.00 | 4 | 1015.6 |
| 20260504173329 | 23 | 0 | 0.0 | 0.0 | 0.00 | 0.00 | 0.00 | 4 | 1015.7 |
| 20260504173027 | 23 | 0 | 0.0 | 0.0 | 0.00 | 0.00 | 0.00 | 4 | 1015.7 |
| 20260504172726 | 23 | 0 | 0.0 | 0.0 | 0.00 | 0.00 | 0.00 | 4 | 1015.8 |
| 20260504172426 | 23 | 0 | 0.0 | 0.0 | 0.00 | 0.00 | 0.00 | 4 | 1015.9 |
| 20260504172126 | 23 | 0 | 1.6 | 6.4 | 0.00 | 0.00 | 0.00 | 4 | 1015.9 |
| 20260504171528 | 24 | 270 | 1.6 | 8.0 | 0.00 | 0.00 | 0.00 | 4 | 1016.0 |
| 20260504171227 | 25 | 270 | 1.6 | 6.4 | 0.00 | 0.00 | 0.00 | 4 | 1015.8 |
| 20260504170927 | 25 | 0 | 0.0 | 0.0 | 0.00 | 0.00 | 0.00 | 4 | 1015.8 |
| 20260504160328 | 22 | 247 | 0.0 | 4.8 | 0.00 | 0.00 | 0.00 | 5 | 1017.0 |